Tracking 28790 objects as of 19-Apr-2024
HD Live streaming from Space Station
objects crossing your sky now

BREEZE M DEB (TANK)

Track BREEZE M DEB (TANK) now!
10-day predictions


NORAD ID: 41583
Int'l Code: 2016-035C
Perigee: 383.6 km
Apogee: 13,891.6 km
Inclination: 50.7 °
Period: 260.4 minutes
Semi major axis: 13508 km
RCS: Unknown
Launch date: June 9, 2016
Source: Commonwealth of Independent States (former USSR) (CIS)
Launch site: ()

Note: This is SATELLITE DEBRIS
Your satellite tracking list
Your tracking list is empty




NASA's NSSDC Master Catalog

Two Line Element Set (TLE):
1 41583U 16035C   24109.54060808  .00003844  00000-0  17770-2 0  9996
2 41583  50.7379 219.0230 4999770 200.9462 127.9954  5.52949983158015
Source of the keplerian elements: AFSPC